Weather Roundup
Issued by NWS Springfield, MO

Home | Current Version | Previous Version | Text Only | Print | Product List | Glossary On
Versions: 1 2 3 4 5 6 7 8 9 10 11 12 13 14 15 16 17 18 19 20 21 22 23 24 25 26 27 28 29 30 31 32 33 34 35 36 37 38 39 40 41 42 43 44 45 46 47 48 49 50
000
NZUS99 KSGF 300959
HRRSGF

HOURLY WEATHER
NATIONAL WEATHER SERVICE SPRINGFIELD MO
500 AM CDT WED JUL 30 2014

......SGF CWA......

CITY           SKY/WX    TMP DP  RH WIND       PRES   REMARKS
SPRINGFIELD    MOCLDY    69  58  67 CALM      30.08S
JOPLIN         CLOUDY    69  63  81 N7        30.09R
WEST PLAINS    PTCLDY    62  57  83 CALM      30.11S
ROLLA          PTCLDY    60  53  77 CALM      30.07S
OSAGE BEACH    PTCLDY    57  54  88 CALM      30.08S
BRANSON        MOCLDY    66  61  82 CALM      30.10S

......SURROUNDING SGF CWA......

CITY           SKY/WX    TMP DP  RH WIND       PRES   REMARKS
CHANUTE        CLOUDY    69  62  78 N3        30.07S
PARSONS        MOCLDY    69  61  75 CALM      30.07S
COFFEYVILLE    MOCLDY    68  63  84 CALM      30.05S
EMPORIA        CLOUDY    67  63  87 NE7       30.09R
SILOAM SPRINGS MOCLDY    66  57  72 E3        30.09S
HARRISON AR    CLOUDY    66  63  90 CALM      30.09S
NEAR YELLVILLE PTCLDY    64  61  88 S3        30.09S

......KANSAS AND MISSOURI......

CITY           SKY/WX    TMP DP  RH WIND       PRES   REMARKS
KANSAS CTY INT MOCLDY    63  59  87 N5        30.10S
DOWNTOWN KC    CLOUDY    69  60  73 N3        30.09R
COLUMBIA       MOCLDY    63  56  78 S5        30.08S
SEDALIA        PTCLDY    60  57  89 CALM      30.09S
ST JOSEPH      MOCLDY    61  59  93 CALM      30.11R
ST LOUIS       MOCLDY    67  57  70 CALM      30.08S
SPIRIT OF STL  CLEAR     60  57  89 CALM      30.06F
KIRKSVILLE     MOCLDY    58  56  93 CALM      30.09S
WICHITA        CLOUDY    69  61  75 SW3       30.06S
TOPEKA         CLOUDY    69  63  81 N3        30.10S
OLATHE         CLOUDY    69  60  73 CALM      30.09S

......TENNESSEE......

CITY           SKY/WX    TMP DP  RH WIND       PRES   REMARKS
MEMPHIS        PTCLDY    65  56  72 CALM      30.09S
NASHVILLE      CLEAR     58  56  93 CALM      30.11R

......ARKANSAS.......

CITY           SKY/WX    TMP DP  RH WIND       PRES   REMARKS
FAYETTEVILLE   CLOUDY    64  62  93 CALM      30.09S
FT SMITH       CLOUDY    73  67  81 E5        30.06R
LITTLE ROCK    MOCLDY    69  60  73 CALM      30.10R

......OKLAHOMA.......

CITY           SKY/WX    TMP DP  RH WIND       PRES   REMARKS
TULSA          CLOUDY    73  68  84 E6        30.02F
PONCA CITY     CLOUDY    72  66  81 CALM      30.05S
MCALESTER      LGT RAIN  75  68  78 SE3       30.07R
OKLAHOMA CITY  LGT RAIN  71  67  87 CALM      30.07R

......IOWA............

CITY           SKY/WX    TMP DP  RH WIND       PRES   REMARKS
DES MOINES     CLEAR     60  55  83 NW3       30.09R
QUAD CITIES    CLEAR     57  55  93 SW5       30.04S

......ILLINOIS........

CITY           SKY/WX    TMP DP  RH WIND       PRES   REMARKS
QUINCY         CLEAR     59  56  89 W3        30.07S
CHICAGO        PTCLDY    60  53  77 W6        30.01R



USA.gov is the U.S. government's official web portal to all federal, state and local government web resources and services.